Regional Weather Roundup
Issued by NWS Raleigh/Durham, NC

Home | Current Version | Previous Version | Text Only | Print | Product List | Glossary On
Versions: 1 2 3 4 5 6 7 8 9 10 11 12 13 14 15 16 17 18 19 20 21 22 23 24 25 26 27 28 29 30 31 32 33 34 35 36 37 38 39 40 41 42 43 44 45 46 47 48 49 50
000
ASUS42 KRAH 200710
RWRRAH
NORTH CAROLINA WEATHER ROUNDUP
NATIONAL WEATHER SERVICE RALEIGH NC
200 AM EST SAT DEC 20 2014

NOTE: "FAIR" INDICATES FEW OR NO CLOUDS BELOW 12,000 FEET WITH NO
SIGNIFICANT WEATHER AND/OR OBSTRUCTIONS TO VISIBILITY.

NCZ001-053-055-056-065-067-200800-
WESTERN NORTH CAROLINA

CITY           SKY/WX    TMP DP  RH WIND       PRES   REMARKS
ASHEVILLE      CLOUDY    39  27  62 CALM      30.14F
JEFFERSON      CLOUDY    31  23  71 CALM      30.11F
MORGANTON      CLOUDY    38  33  80 CALM      30.21F
HICKORY        CLOUDY    40  30  67 N3        30.17S
RUTHERFORDTON  CLOUDY    43  33  66 CALM      30.17S
MOUNT AIRY     CLOUDY    39  28  62 CALM      30.21S
BOONE          CLOUDY    32  24  73 CALM      30.12F
$$

NCZ021-022-025-041-071-084-088-200800-
CENTRAL NORTH CAROLINA

CITY           SKY/WX    TMP DP  RH WIND       PRES   REMARKS
CHARLOTTE      CLOUDY    46  25  43 E6        30.18S
GREENSBORO     CLOUDY    38  27  64 NE8       30.20S WCI  32
WINSTON-SALEM  CLOUDY    40  24  53 E6        30.21S
RALEIGH-DURHAM CLOUDY    37  30  75 NE3       30.23S
FORT BRAGG     CLOUDY    38  35  85 N5        30.21S WCI  35
FAYETTEVILLE   CLOUDY    39  34  82 NE6       30.21S WCI  35
BURLINGTON     CLOUDY    37  27  67 NE3       30.21S
LAURINBURG     CLOUDY    41  35  79 SE3       30.22R
$$

NCZ011-015-027-028-043-044-047-080-103-200800-
NORTHEASTERN NORTH CAROLINA

CITY           SKY/WX    TMP DP  RH WIND       PRES   REMARKS
ROCKY MT-WILSO MOCLDY    34  30  85 N7        30.24S WCI  28
GREENVILLE     MOCLDY    34  32  93 CALM      30.25R
WASHINGTON     PTCLDY    33  31  92 N5        30.24S WCI  28
ELIZABETH CITY MOCLDY    37  29  72 NW6       30.25R WCI  32
MANTEO         PTCLDY    39  32  76 N5        30.24R
CAPE HATTERAS  PTCLDY    41  34  76 VRB6      30.22R
$$

NCZ078-087-090-091-093-098-101-200800-
SOUTHEASTERN NORTH CAROLINA

CITY           SKY/WX    TMP DP  RH WIND       PRES   REMARKS
LUMBERTON      CLOUDY    45  32  60 E6        30.21R
GOLDSBORO      CLOUDY    37  36  97 CALM      30.21S
KINSTON        CLOUDY    33  31  96 CALM      30.23S
KENANSVILLE    MOCLDY    35  32  88 CALM      30.24R
NEW BERN       PTCLDY    38  32  79 NE3       30.23F
CHERRY POINT   MOCLDY    37  33  85 E3        30.22F
BEAUFORT       MOCLDY    41  36  82 NE6       30.21S
JACKSONVILLE   MOCLDY    42  36  79 E3        30.22R
WILMINGTON     CLOUDY    43  34  70 NE5       30.21R
$$



USA.gov is the U.S. government's official web portal to all federal, state and local government web resources and services.